Location: ?
(35.3544°N, 139.4507°E)
Time: 05:37:41
(UTC+00:00)

USA 234 - Pass Details

Date: 03 August 2024
Orbit: 1100 x 1107 km, 123.0° (Epoch: 08 July)

Event Time Altitude Azimuth Distance (km) Brightness Sun altitude
Rises 18:53:58 0° 38° (NE) 3,929 7.6 -11.6°
Reaches altitude 10° 18:56:32 10° 33° (NNE) 2,968 6.6 -11.2°
Maximum altitude 19:02:46 48° 322° (NW) 1,403 3.8 -10.1°
Enters shadow 19:08:55 10° 250° (WSW) 2,933 4.8 -9.0°
